Tracking 33744 objects as of 13-Apr-2026
HD Live streaming from Space Station
objects crossing your sky now

STARLINK-36817

Track STARLINK-36817 now!
10-day predictions
STARLINK-36817 is classified as:


NORAD ID: 67882
Int'l Code: 2026-035D
Perigee: 412.2 km
Apogee: 414.4 km
Inclination: 97.3 °
Period: 92.7 minutes
Semi major axis: 6784 km
RCS: Unknown
Launch date: February 21, 2026
Source: United States (US)
Launch site: AIR FORCE WESTERN TEST RANGE (AFWTR)
Your satellite tracking list
Your tracking list is empty




NASA's NSSDC Master Catalog

Two Line Element Set (TLE):
1 67882U 26035D   26102.91668981 -.00329187  00000-0 -53850-2 0  9991
2 67882  97.2839  36.9700 0001604  88.6056  77.2295 15.53620451  6369
Source of the keplerian elements: AFSPC